This demonstration page uses our WeatherBlox Daily Observations layout. Learn more.

Left ArrowRight Arrow

Hourly Observations for October 22, 2022

Temp ( °F °C ) Dew Point ( °F °C ) Humidity (%) Winds ( mph kmh ) Pressure ( in mb ) Visibility ( mi km ) Precip ( " mm )
12:56 am 00:56 Clear 48 8.9 31 -0.6 51 51 S 5 7 29.52 1000 10 16 0.00 0.00
1:56 am 01:56 Clear 47 8.3 31 -0.6 53 53 SW 5 7 29.51 999 10 16 0.00 0.00
2:56 am 02:56 Clear 49 9.4 30 -1.1 48 48 SW 3 6 29.49 999 10 16 0.00 0.00
3:56 am 03:56 Clear 52 11.1 30 -1.1 43 43 WSW 6 9 29.48 998 10 16 0.00 0.00
4:56 am 04:56 Clear 45 7.2 31 -0.6 58 58 Calm 29.49 999 10 16 0.00 0.00
5:56 am 05:56 Clear 45 7.2 31 -0.6 58 58 NW 6 9 29.51 999 10 16 0.00 0.00
6:56 am 06:56 Clear 44 6.7 30 -1.1 57 57 WNW 6 9 29.51 999 10 16 0.00 0.00
7:56 am 07:56 Sunny 43 6.1 31 -0.6 62 62 W 3 6 29.52 1000 10 16 0.00 0.00
8:56 am 08:56 Sunny 43 6.1 35 1.7 73 73 S 7 11 29.52 1000 10 16 0.00 0.00
9:56 am 09:56 Sunny 54 12.2 36 2.2 50 50 S 7 11 29.52 1000 10 16 0.00 0.00
10:56 am 10:56 Sunny 66 18.9 35 1.7 32 32 SSW 6 9 29.51 999 10 16 0.00 0.00
11:56 am 11:56 Sunny 76 24.4 31 -0.6 19 19 S 6 9 29.48 998 10 16 0.00 0.00
12:56 pm 12:56 Sunny 82 27.8 29 -1.7 14 14 SE 3 6 29.45 997 10 16 0.00 0.00
1:56 pm 13:56 Sunny 85 29.4 27 -2.8 12 12 S 6 9 29.42 996 10 16 0.00 0.00
2:32 pm 14:32 Hazy 86 30 27 -3 12 12 SSE 12 19 29.31 992 2 2 0.00 0.00
2:56 pm 14:56 Hazy 88 31.1 28 -2.2 12 12 SSE 10 17 29.39 995 1 1 0.00 0.00
3:04 pm 15:04 Hazy 88 31 28 -2 12 12 S 13 20 29.29 992 2 3 0.00 0.00
3:11 pm 15:11 Hazy 88 31 27 -3 11 11 S 14 22 29.29 992 1 2 0.00 0.00
3:37 pm 15:37 Hazy 88 31 27 -3 11 11 SE 14 22 29.28 992 4 6 0.00 0.00
3:45 pm 15:45 Hazy 88 31 28 -2 12 12 SSE 17 28 29.28 992 2 3 0.00 0.00
3:56 pm 15:56 Hazy 87 30.6 29 -1.7 12 12 SSE 15 24 29.38 995 1 2 0.00 0.00
4:06 pm 16:06 Hazy 86 30 30 -1 13 13 SE 16 26 29.29 992 1 1 0.00 0.00
4:15 pm 16:15 Hazy 86 30 30 -1 13 13 SSE 16 26 29.29 992 1 2 0.00 0.00
4:30 pm 16:30 Hazy 84 29 30 -1 14 14 SE 17 28 29.29 992 3 5 0.00 0.00
4:48 pm 16:48 Hazy 84 29 34 1 16 16 SE 16 26 29.30 992 3 4 0.00 0.00
4:56 pm 16:56 Hazy 84 28.9 33 0.6 16 16 SE 16 26 29.40 996 4 6 0.00 0.00
5:56 pm 17:56 Sunny 78 25.6 32 0 19 19 SE 12 19 29.41 996 10 16 0.00 0.00
6:56 pm 18:56 Clear 69 20.6 37 2.8 31 31 SE 9 15 29.44 997 10 16 0.00 0.00
7:56 pm 19:56 Clear 63 17.2 39 3.9 41 41 SE 10 17 29.45 997 10 16 0.00 0.00
8:56 pm 20:56 Clear 62 16.7 41 5 46 46 SE 12 19 29.44 997 10 16 0.00 0.00
9:56 pm 21:56 Clear 57 13.9 41 5 55 55 SE 9 15 29.42 996 10 16 0.00 0.00
10:56 pm 22:56 Clear 56 13.3 41 5 57 57 SE 7 11 29.41 996 10 16 0.00 0.00
11:56 pm 23:56 Clear 55 12.8 41 5 59 59 SE 7 11 29.39 995 10 16 0.01 0.13

Powered by AerisWeather